| time (UTC) | temp F | wind direction | speed MPH | gust MPH | rain 1hr in | rain 24hr in | rain mn in | humidity % | barometer mb |
| 20260906095530 | 79 | 275 | 6.0 | 8.0 | 0.00 | 1.13 | 0.00 | 86 | 1011.4 |
| 20260906093405 | 79 | 278 | 5.0 | 8.0 | 0.00 | 1.13 | 0.00 | 86 | 1011.1 |
| 20260906092335 | 79 | 276 | 5.0 | 8.0 | 0.00 | 1.13 | 0.00 | 86 | 1011.1 |
| 20260906085015 | 78 | 259 | 9.0 | 11.0 | 0.00 | 1.13 | 0.00 | 86 | 1010.9 |
| 20260906084020 | 79 | 236 | 8.0 | 10.0 | 0.00 | 1.13 | 0.00 | 87 | 1010.8 |
| 20260906081857 | 79 | 227 | 9.0 | 12.0 | 0.00 | 1.13 | 0.00 | 86 | 1010.7 |
| 20260906080844 | 79 | 232 | 9.0 | 12.0 | 0.00 | 1.13 | 0.00 | 86 | 1010.7 |
| 20260906075812 | 79 | 233 | 10.0 | 12.0 | 0.00 | 1.13 | 0.00 | 86 | 1010.7 |
| 20260906074805 | 79 | 259 | 8.0 | 12.0 | 0.00 | 1.13 | 0.00 | 86 | 1010.8 |
| 20260906073816 | 79 | 257 | 9.0 | 12.0 | 0.00 | 1.13 | 0.00 | 86 | 1010.8 |
| 20260906072822 | 79 | 248 | 9.0 | 13.0 | 0.00 | 1.13 | 0.00 | 86 | 1011.0 |
| 20260906071805 | 79 | 242 | 10.0 | 13.0 | 0.00 | 1.13 | 0.00 | 86 | 1010.9 |
| 20260906070807 | 79 | 237 | 9.0 | 11.0 | 0.00 | 1.13 | 0.00 | 86 | 1011.0 |
| 20260906065803 | 79 | 226 | 8.0 | 11.0 | 0.00 | 1.13 | 0.00 | 86 | 1011.3 |
| 20260906064752 | 79 | 235 | 8.0 | 11.0 | 0.00 | 1.13 | 0.00 | 86 | 1011.4 |
| 20260906063724 | 79 | 226 | 8.0 | 12.0 | 0.00 | 1.13 | 0.00 | 87 | 1011.6 |
| 20260906062656 | 79 | 224 | 9.0 | 12.0 | 0.00 | 1.13 | 0.00 | 87 | 1011.8 |
| 20260906061644 | 79 | 223 | 7.0 | 10.0 | 0.00 | 1.13 | 0.00 | 86 | 1011.8 |
| 20260906060633 | 79 | 203 | 5.0 | 8.0 | 0.00 | 1.13 | 0.00 | 86 | 1012.2 |
| 20260906055604 | 79 | 217 | 7.0 | 10.0 | 0.00 | 1.13 | 0.00 | 86 | 1012.3 |
| 20260906054604 | 79 | 209 | 9.0 | 12.0 | 0.00 | 1.13 | 0.00 | 86 | 1012.1 |
| 20260906053528 | 79 | 210 | 9.0 | 12.0 | 0.00 | 1.13 | 0.00 | 86 | 1012.1 |
| 20260906052531 | 79 | 229 | 8.0 | 10.0 | 0.00 | 1.13 | 0.00 | 86 | 1012.3 |
| 20260906051521 | 79 | 217 | 7.0 | 10.0 | 0.00 | 1.13 | 0.00 | 87 | 1012.7 |
| 20260906050458 | 79 | 201 | 6.0 | 10.0 | 0.00 | 1.13 | 0.00 | 87 | 1012.7 |
| 20260906045500 | 79 | 216 | 6.0 | 10.0 | 0.00 | 1.13 | 0.00 | 88 | 1012.7 |
| 20260906044452 | 79 | 209 | 6.0 | 9.0 | 0.00 | 1.13 | 0.00 | 88 | 1012.5 |
| 20260906043451 | 79 | 190 | 7.0 | 10.0 | 0.00 | 1.13 | 0.00 | 87 | 1012.5 |
| 20260906042456 | 79 | 195 | 6.0 | 10.0 | 0.00 | 1.13 | 0.00 | 87 | 1012.6 |
| 20260906041504 | 79 | 221 | 0.0 | 9.0 | 0.00 | 1.13 | 0.00 | 87 | 1012.6 |
| 20260906040523 | 79 | 239 | 6.0 | 9.0 | 0.00 | 1.13 | 0.00 | 86 | 1012.6 |
| 20260906035528 | 79 | 223 | 5.0 | 8.0 | 0.00 | 1.13 | 1.13 | 86 | 1012.6 |
| 20260906034453 | 79 | 238 | 2.0 | 5.0 | 0.00 | 1.13 | 1.13 | 86 | 1012.5 |
| 20260906033448 | 79 | 223 | 4.0 | 6.0 | 0.00 | 1.13 | 1.13 | 86 | 1012.5 |
| 20260906032447 | 79 | 221 | 3.0 | 6.0 | 0.00 | 1.13 | 1.13 | 86 | 1012.5 |
| 20260906031420 | 79 | 215 | 5.0 | 9.0 | 0.00 | 1.13 | 1.13 | 86 | 1012.5 |
| 20260906030431 | 79 | 200 | 8.0 | 9.0 | 0.00 | 1.13 | 1.13 | 86 | 1012.6 |
| 20260906024229 | 80 | 191 | 9.0 | 12.0 | 0.00 | 1.13 | 1.13 | 84 | 1012.7 |
| 20260906023159 | 80 | 188 | 9.0 | 12.0 | 0.00 | 1.13 | 1.13 | 84 | 1012.9 |
| 20260906021012 | 80 | 124 | 2.0 | 8.0 | 0.00 | 1.13 | 1.13 | 83 | 1013.1 |
| 20260906020020 | 80 | 157 | 3.0 | 8.0 | 0.00 | 1.13 | 1.13 | 83 | 1013.1 |
| 20260906013909 | 79 | 165 | 3.0 | 11.0 | 0.00 | 1.13 | 1.13 | 83 | 1013.1 |
| 20260906012843 | 80 | 150 | 6.0 | 16.0 | 0.00 | 1.12 | 1.12 | 85 | 1013.2 |
| 20260906010718 | 80 | 176 | 9.0 | 14.0 | 0.00 | 1.12 | 1.12 | 82 | 1013.1 |
| 20260906004535 | 81 | 200 | 6.0 | 11.0 | 0.00 | 1.10 | 1.10 | 81 | 1012.6 |
| 20260906003512 | 82 | 118 | 5.0 | 9.0 | 0.00 | 1.10 | 1.10 | 76 | 1012.5 |
| 20260906002459 | 82 | 196 | 6.0 | 8.0 | 0.00 | 1.10 | 1.10 | 74 | 1012.5 |
| 20260906001517 | 81 | 198 | 6.0 | 9.0 | 0.00 | 1.10 | 1.10 | 74 | 1012.5 |
| 20260905235359 | 81 | 188 | 7.0 | 10.0 | 0.00 | 1.09 | 1.09 | 80 | 1012.4 |
| 20260905234411 | 80 | 198 | 7.0 | 12.0 | 0.00 | 1.09 | 1.09 | 81 | 1012.5 |
| 20260905233406 | 80 | 176 | 8.0 | 12.0 | 0.00 | 1.09 | 1.09 | 81 | 1012.3 |
| 20260905232349 | 78 | 165 | 5.0 | 9.0 | 0.06 | 1.09 | 1.09 | 83 | 1012.4 |
| 20260905231355 | 77 | 153 | 1.0 | 3.0 | 0.21 | 1.07 | 1.09 | 85 | 1012.4 |
| 20260905230355 | 76 | 219 | 5.0 | 18.0 | 0.68 | 1.02 | 1.03 | 84 | 1013.1 |
| 20260905224228 | 77 | 322 | 21.0 | 34.0 | 0.87 | 0.29 | 0.32 | 83 | 1014.4 |
| 20260905223215 | 81 | 334 | 16.0 | 34.0 | 0.00 | 0.08 | 0.08 | 79 | 1014.4 |
| 20260905222206 | 83 | 36 | 3.0 | 9.0 | 0.00 | 0.08 | 0.08 | 77 | 1012.8 |
| 20260905221201 | 84 | 118 | 3.0 | 9.0 | 0.00 | 0.08 | 0.08 | 76 | 1012.3 |
| 20260905220205 | 84 | 134 | 5.0 | 10.0 | 0.00 | 0.08 | 0.08 | 76 | 1012.3 |
| 20260905215154 | 84 | 98 | 8.0 | 14.0 | 0.00 | 0.08 | 0.08 | 77 | 1011.2 |
| 20260905214133 | 86 | 115 | 6.0 | 14.0 | 0.00 | 0.08 | 0.08 | 71 | 1011.6 |
| 20260905213124 | 86 | 112 | 6.0 | 15.0 | 0.00 | 0.08 | 0.08 | 67 | 1011.7 |
| 20260905212128 | 86 | 146 | 9.0 | 15.0 | 0.00 | 0.08 | 0.08 | 66 | 1011.5 |
| 20260905211120 | 86 | 148 | 8.0 | 14.0 | 0.00 | 0.08 | 0.08 | 70 | 1012.0 |
| 20260905210100 | 88 | 139 | 6.0 | 11.0 | 0.00 | 0.08 | 0.08 | 68 | 1012.0 |
| 20260905205027 | 87 | 105 | 4.0 | 11.0 | 0.00 | 0.08 | 0.08 | 69 | 1012.2 |
| 20260905204027 | 88 | 186 | 6.0 | 13.0 | 0.00 | 0.08 | 0.08 | 69 | 1012.1 |
| 20260905203023 | 87 | 135 | 7.0 | 13.0 | 0.00 | 0.08 | 0.08 | 70 | 1011.9 |
| 20260905202008 | 87 | 92 | 6.0 | 13.0 | 0.00 | 0.08 | 0.08 | 73 | 1011.8 |
| 20260905200950 | 86 | 137 | 7.0 | 13.0 | 0.00 | 0.08 | 0.08 | 77 | 1011.8 |
| 20260905195946 | 88 | 135 | 6.0 | 13.0 | 0.00 | 0.08 | 0.08 | 73 | 1011.9 |
| 20260905194925 | 88 | 74 | 6.0 | 11.0 | 0.00 | 0.08 | 0.08 | 77 | 1012.1 |
| 20260905193932 | 88 | 74 | 4.0 | 10.0 | 0.00 | 0.08 | 0.08 | 77 | 1011.9 |
| 20260905192916 | 89 | 96 | 4.0 | 9.0 | 0.00 | 0.08 | 0.08 | 74 | 1011.9 |
| 20260905191839 | 89 | 46 | 4.0 | 9.0 | 0.00 | 0.08 | 0.08 | 74 | 1012.2 |
| 20260905190830 | 90 | 42 | 2.0 | 9.0 | 0.00 | 0.08 | 0.08 | 71 | 1012.2 |
| 20260905185827 | 89 | 49 | 4.0 | 9.0 | 0.00 | 0.08 | 0.08 | 70 | 1012.2 |
| 20260905184803 | 90 | 122 | 3.0 | 5.0 | 0.00 | 0.08 | 0.08 | 63 | 1012.1 |
| 20260905183752 | 90 | 201 | 1.0 | 6.0 | 0.00 | 0.08 | 0.08 | 62 | 1012.1 |
| 20260905182734 | 89 | 189 | 3.0 | 22.0 | 0.08 | 0.08 | 0.08 | 62 | 1012.2 |
| 20260905181743 | 87 | 68 | 14.0 | 22.0 | 0.94 | 0.04 | 0.06 | 68 | 1012.5 |
| 20260905180801 | 91 | 284 | 6.0 | 10.0 | 0.00 | 0.00 | 0.00 | 63 | 1012.4 |
| 20260905175727 | 91 | 298 | 5.0 | 8.0 | 0.00 | 0.00 | 0.00 | 63 | 1012.5 |
| 20260905173545 | 91 | 241 | 1.0 | 5.0 | 0.00 | 0.00 | 0.00 | 64 | 1012.6 |
| 20260905172509 | 91 | 275 | 1.0 | 2.0 | 0.00 | 0.00 | 0.00 | 66 | 1012.8 |
| 20260905171444 | 90 | 267 | 2.0 | 10.0 | 0.00 | 0.00 | 0.00 | 67 | 1013.1 |
| 20260905170421 | 90 | 238 | 6.0 | 10.0 | 0.00 | 0.00 | 0.00 | 68 | 1013.2 |
| 20260905165406 | 90 | 232 | 6.0 | 10.0 | 0.00 | 0.00 | 0.00 | 66 | 1013.3 |
| 20260905164401 | 90 | 199 | 6.0 | 10.0 | 0.00 | 0.00 | 0.00 | 67 | 1013.5 |
| 20260905163340 | 89 | 226 | 6.0 | 10.0 | 0.00 | 0.00 | 0.00 | 67 | 1013.6 |
| 20260905162358 | 89 | 277 | 6.0 | 9.0 | 0.00 | 0.00 | 0.00 | 69 | 1013.7 |
| 20260905161327 | 89 | 209 | 4.0 | 8.0 | 0.00 | 0.00 | 0.00 | 70 | 1014.0 |
| 20260905160332 | 88 | 244 | 4.0 | 9.0 | 0.00 | 0.00 | 0.00 | 68 | 1014.0 |
| 20260905152955 | 88 | 246 | 8.0 | 12.0 | 0.00 | 0.00 | 0.00 | 71 | 1014.5 |
| 20260905152004 | 87 | 223 | 7.0 | 12.0 | 0.00 | 0.00 | 0.00 | 71 | 1014.5 |
| 20260905150945 | 87 | 234 | 9.0 | 12.0 | 0.00 | 0.00 | 0.00 | 71 | 1014.3 |
| 20260905150006 | 87 | 231 | 8.0 | 14.0 | 0.00 | 0.00 | 0.00 | 74 | 1014.3 |
| 20260905144946 | 86 | 223 | 10.0 | 14.0 | 0.00 | 0.00 | 0.00 | 74 | 1014.3 |
| 20260905144001 | 86 | 217 | 9.0 | 12.0 | 0.00 | 0.00 | 0.00 | 76 | 1014.4 |
| 20260905142934 | 86 | 242 | 9.0 | 12.0 | 0.00 | 0.00 | 0.00 | 75 | 1014.3 |
| 20260905141951 | 86 | 213 | 9.0 | 12.0 | 0.00 | 0.00 | 0.00 | 77 | 1014.4 |
| 20260905140934 | 85 | 202 | 7.0 | 11.0 | 0.00 | 0.00 | 0.00 | 77 | 1014.3 |
| 20260905135905 | 85 | 205 | 7.0 | 9.0 | 0.00 | 0.00 | 0.00 | 77 | 1014.4 |
| 20260905134849 | 85 | 221 | 5.0 | 8.0 | 0.00 | 0.00 | 0.00 | 80 | 1014.4 |
| 20260905133817 | 84 | 210 | 6.0 | 9.0 | 0.00 | 0.00 | 0.00 | 80 | 1014.5 |
| 20260905132748 | 84 | 224 | 7.0 | 11.0 | 0.00 | 0.00 | 0.00 | 81 | 1014.6 |
| 20260905131809 | 84 | 221 | 7.0 | 11.0 | 0.00 | 0.00 | 0.00 | 81 | 1014.5 |
| 20260905124524 | 82 | 241 | 5.0 | 7.0 | 0.00 | 0.00 | 0.00 | 85 | 1014.3 |
| 20260905123518 | 82 | 215 | 5.0 | 6.0 | 0.00 | 0.00 | 0.00 | 86 | 1014.3 |
| 20260905122444 | 82 | 208 | 4.0 | 6.0 | 0.00 | 0.00 | 0.00 | 86 | 1014.4 |
| 20260905120330 | 82 | 236 | 3.0 | 5.0 | 0.00 | 0.00 | 0.00 | 86 | 1014.4 |
| 20260905114201 | 82 | 229 | 5.0 | 7.0 | 0.00 | 0.00 | 0.00 | 86 | 1014.0 |
| 20260905112010 | 81 | 211 | 6.0 | 7.0 | 0.00 | 0.00 | 0.00 | 85 | 1013.7 |
| 20260905110945 | 82 | 215 | 6.0 | 8.0 | 0.00 | 0.00 | 0.00 | 85 | 1013.5 |
| 20260905110006 | 82 | 219 | 6.0 | 8.0 | 0.00 | 0.00 | 0.00 | 85 | 1013.4 |
| 20260905105016 | 82 | 213 | 4.0 | 6.0 | 0.00 | 0.00 | 0.00 | 84 | 1013.4 |
| 20260905104032 | 82 | 223 | 3.0 | 5.0 | 0.00 | 0.00 | 0.00 | 84 | 1013.5 |
| 20260905102958 | 82 | 223 | 4.0 | 6.0 | 0.00 | 0.00 | 0.00 | 83 | 1013.4 |
| 20260905100853 | 82 | 211 | 4.0 | 6.0 | 0.00 | 0.00 | 0.00 | 83 | 1013.3 |
| 20260905095840 | 83 | 194 | 4.0 | 6.0 | 0.00 | 0.00 | 0.00 | 82 | 1013.4 |